HIMAWARI-9

Last updated on Sun Jun 21 2026 00:02:46 GMT+0000 (Coordinated Universal Time)

1 41836U 16064A 26171.46088412 .00000000 00000+0 00000+0 0 9997 2 41836 0.0140 351.6731 0000932 111.3358 112.3453 1.00270283 35247
UTC large
Height (km)
Speed (km/s)
/
Latitude / Longitude
Inclination (degrees)
Orbital Period (minutes)
Azimuth
Elevation
Range (km)
Doppler Factor

Next 0 passes for location: London (51.5072 / 0.1276)

No passes found over London.
HIMAWARI-9